TVF30FB LFLL-LEZL

Flight info

Callsign TVF30FB
Flight time 1h 57m
Altitude 33000
Route REPSI DCT LERGA DCT MINSO DCT NARAK DCT AGN/N0451F350 DCT MAQAB DCT TIVLI N869 ELSAP/N0450F370 N869 ZAR DCT KONKE DCT TERSA DCT CJN DCT PALIO DCT AKOKI DCT GOTOR DCT KAMPO DCT MONTO DCT MOLIN DCT HIJ
Aircraft B738/M-SDE2E3FGHIRWXY/LB1

Departure

Time 2026-04-28 09:29
Airport Lyon Saint-Exupéry Airport (LFLL)

Arrival

Time 2026-04-28 11:26
Airport Seville Airport (LEZL)
Time Latitude Longitude Altitude Speed Heading
2026-04-28 08:50 45.71584 5.08325 798 ft 0 kts 178°
2026-04-28 09:16 45.71606 5.08324 797 ft 4 kts 180°
2026-04-28 09:16 45.71634 5.08324 797 ft 4 kts 179°
2026-04-28 09:16 45.71660 5.08321 797 ft 4 kts 161°
2026-04-28 09:16 45.71675 5.08308 797 ft 2 kts 86°
2026-04-28 09:17 45.71675 5.08306 797 ft 0 kts 84°
2026-04-28 09:20 45.71675 5.08318 797 ft 7 kts 85°
2026-04-28 09:20 45.71680 5.08396 797 ft 8 kts 84°
2026-04-28 09:20 45.71694 5.08460 797 ft 7 kts 51°
2026-04-28 09:20 45.71736 5.08484 796 ft 7 kts
2026-04-28 09:21 45.71783 5.08481 796 ft 7 kts 354°
2026-04-28 09:21 45.71830 5.08475 795 ft 7 kts 354°
2026-04-28 09:21 45.71898 5.08467 794 ft 12 kts 355°
2026-04-28 09:21 45.71985 5.08456 793 ft 12 kts 355°
2026-04-28 09:22 45.72069 5.08446 792 ft 12 kts 355°
2026-04-28 09:22 45.72152 5.08435 791 ft 12 kts 355°
2026-04-28 09:22 45.72234 5.08425 790 ft 12 kts 355°
2026-04-28 09:22 45.72313 5.08415 789 ft 11 kts 355°
2026-04-28 09:23 45.72393 5.08406 788 ft 12 kts 355°
2026-04-28 09:23 45.72482 5.08396 787 ft 14 kts 355°
2026-04-28 09:23 45.72583 5.08383 786 ft 15 kts 355°
2026-04-28 09:23 45.72693 5.08370 784 ft 16 kts 355°
2026-04-28 09:24 45.72802 5.08356 783 ft 15 kts 355°
2026-04-28 09:24 45.72907 5.08343 782 ft 15 kts 355°
2026-04-28 09:24 45.73007 5.08331 781 ft 14 kts 355°
2026-04-28 09:24 45.73102 5.08321 779 ft 13 kts 356°
2026-04-28 09:25 45.73193 5.08310 778 ft 13 kts 355°
2026-04-28 09:25 45.73287 5.08298 777 ft 14 kts 355°
2026-04-28 09:25 45.73403 5.08284 776 ft 20 kts 355°
2026-04-28 09:25 45.73539 5.08267 774 ft 17 kts 355°
2026-04-28 09:26 45.73636 5.08255 774 ft 11 kts 355°
2026-04-28 09:26 45.73691 5.08252 773 ft 7 kts 359°
2026-04-28 09:26 45.73727 5.08293 773 ft 7 kts 66°
2026-04-28 09:26 45.73728 5.08362 774 ft 7 kts 99°
2026-04-28 09:27 45.73714 5.08456 774 ft 5 kts 103°
2026-04-28 09:27 45.73697 5.08556 774 ft 13 kts 104°
2026-04-28 09:27 45.73676 5.08679 774 ft 8 kts 103°
2026-04-28 09:28 45.73636 5.08719 775 ft 6 kts 174°
2026-04-28 09:28 45.73487 5.08737 778 ft 54 kts 175°
2026-04-28 09:28 45.72874 5.08811 785 ft 121 kts 175°
2026-04-28 09:28 45.71842 5.08932 874 ft 168 kts 175°
2026-04-28 09:29 45.70661 5.09079 1711 ft 169 kts 174°
2026-04-28 09:29 45.69472 5.09215 2667 ft 169 kts 175°
2026-04-28 09:29 45.68309 5.09351 3622 ft 170 kts 175°
2026-04-28 09:29 45.67119 5.09496 4380 ft 174 kts 175°
2026-04-28 09:30 45.65912 5.09646 5060 ft 183 kts 176°
2026-04-28 09:30 45.64543 5.09817 5263 ft 207 kts 175°
2026-04-28 09:30 45.63043 5.10005 5403 ft 225 kts 175°
2026-04-28 09:30 45.61428 5.09895 5602 ft 240 kts 194°
2026-04-28 09:31 45.59887 5.08854 5743 ft 259 kts 218°
2026-04-28 09:31 45.58716 5.06833 6262 ft 270 kts 244°
2026-04-28 09:31 45.58153 5.04276 6989 ft 271 kts 257°
2026-04-28 09:31 45.57757 5.01629 7715 ft 272 kts 257°
2026-04-28 09:32 45.57366 4.99011 8415 ft 274 kts 256°
2026-04-28 09:32 45.56952 4.96349 9138 ft 276 kts 256°
2026-04-28 09:32 45.56520 4.93671 9861 ft 277 kts 255°
2026-04-28 09:32 45.56076 4.90966 10377 ft 285 kts 255°
2026-04-28 09:33 45.55602 4.88099 10522 ft 307 kts 256°
2026-04-28 09:33 45.55261 4.84987 10677 ft 328 kts 263°
2026-04-28 09:33 45.55085 4.81644 10859 ft 346 kts 265°
2026-04-28 09:33 45.54947 4.78208 11263 ft 354 kts 265°
2026-04-28 09:34 45.54804 4.74666 11847 ft 358 kts 265°
2026-04-28 09:34 45.54647 4.71098 12487 ft 361 kts 265°
2026-04-28 09:34 45.54478 4.67550 13109 ft 364 kts 264°
2026-04-28 09:34 45.54294 4.63915 13694 ft 370 kts 264°
2026-04-28 09:35 45.54101 4.60225 14310 ft 373 kts 264°
2026-04-28 09:35 45.53903 4.56535 15024 ft 372 kts 264°
2026-04-28 09:35 45.53705 4.52858 15763 ft 371 kts 264°
2026-04-28 09:35 45.53504 4.49176 16458 ft 372 kts 264°
2026-04-28 09:36 45.53304 4.45532 17117 ft 373 kts 264°
2026-04-28 09:36 45.53100 4.41830 17773 ft 375 kts 263°
2026-04-28 09:36 45.52896 4.38117 18413 ft 376 kts 263°
2026-04-28 09:36 45.52687 4.34384 18956 ft 378 kts 263°
2026-04-28 09:37 45.52472 4.30629 19475 ft 380 kts 262°
2026-04-28 09:37 45.51845 4.26973 19959 ft 381 kts 246°
2026-04-28 09:37 45.50542 4.23731 20471 ft 383 kts 236°
2026-04-28 09:37 45.48985 4.20624 20910 ft 387 kts 234°
2026-04-28 09:38 45.47378 4.17515 21329 ft 391 kts 234°
2026-04-28 09:38 45.45755 4.14383 21792 ft 393 kts 234°
2026-04-28 09:38 45.44133 4.11232 22261 ft 395 kts 235°
2026-04-28 09:38 45.42528 4.08092 22717 ft 398 kts 235°
2026-04-28 09:39 45.40897 4.04886 23144 ft 400 kts 235°
2026-04-28 09:39 45.39260 4.01658 23564 ft 403 kts 235°
2026-04-28 09:39 45.37609 3.98401 23930 ft 406 kts 235°
2026-04-28 09:39 45.35955 3.95140 24334 ft 407 kts 235°
2026-04-28 09:40 45.34297 3.91874 24739 ft 408 kts 235°
2026-04-28 09:40 45.32649 3.88633 25100 ft 409 kts 235°
2026-04-28 09:40 45.30975 3.85343 25415 ft 412 kts 236°
2026-04-28 09:40 45.29283 3.82020 25708 ft 415 kts 236°
2026-04-28 09:41 45.27586 3.78694 26067 ft 416 kts 236°
2026-04-28 09:41 45.25890 3.75375 26428 ft 417 kts 236°
2026-04-28 09:41 45.24193 3.72008 26757 ft 418 kts 236°
2026-04-28 09:41 45.22540 3.68658 27073 ft 420 kts 237°
2026-04-28 09:42 45.20868 3.65247 27379 ft 421 kts 237°
2026-04-28 09:42 45.19190 3.61823 27702 ft 423 kts 237°
2026-04-28 09:42 45.17505 3.58391 27992 ft 425 kts 237°
2026-04-28 09:42 45.15810 3.54951 28308 ft 426 kts 237°
2026-04-28 09:43 45.14110 3.51510 28608 ft 427 kts 237°
2026-04-28 09:43 45.12401 3.48059 28861 ft 429 kts 237°
2026-04-28 09:43 45.10680 3.44587 29164 ft 430 kts 237°
2026-04-28 09:43 45.09543 3.42298 29513 ft 427 kts 237°
2026-04-28 09:44 45.07840 3.38873 30011 ft 424 kts 237°
2026-04-28 09:44 45.05589 3.34353 30465 ft 422 kts 237°
2026-04-28 09:44 45.04445 3.32055 30696 ft 422 kts 237°
2026-04-28 09:44 45.02776 3.28709 31058 ft 420 kts 237°
2026-04-28 09:45 45.01092 3.25337 31417 ft 418 kts 237°
2026-04-28 09:45 44.99415 3.21982 31778 ft 417 kts 237°
2026-04-28 09:45 44.97743 3.18641 32130 ft 415 kts 237°
2026-04-28 09:45 44.96075 3.15312 32448 ft 414 kts 237°
2026-04-28 09:46 44.94410 3.11992 32688 ft 414 kts 237°
2026-04-28 09:46 44.92733 3.08651 32873 ft 416 kts 237°
2026-04-28 09:46 44.91082 3.05367 33043 ft 415 kts 236°
2026-04-28 09:46 44.89406 3.02036 33036 ft 415 kts 236°
2026-04-28 09:47 44.86069 2.95416 33050 ft 413 kts 236°
2026-04-28 09:47 44.82812 2.88789 33062 ft 414 kts 238°
2026-04-28 09:48 44.79689 2.81947 33047 ft 414 kts 239°
2026-04-28 09:48 44.76584 2.75122 33057 ft 413 kts 238°
2026-04-28 09:49 44.73480 2.68371 33062 ft 413 kts 238°
2026-04-28 09:49 44.70339 2.61586 33068 ft 412 kts 238°
2026-04-28 09:50 44.67198 2.54830 33048 ft 411 kts 238°
2026-04-28 09:50 44.64087 2.48147 33075 ft 410 kts 238°
2026-04-28 09:51 44.60954 2.41439 33069 ft 410 kts 238°
2026-04-28 09:51 44.57819 2.34740 33051 ft 410 kts 238°
2026-04-28 09:52 44.54703 2.28095 33081 ft 410 kts 238°
2026-04-28 09:52 44.51547 2.21382 33069 ft 412 kts 238°
2026-04-28 09:53 44.48381 2.14662 33066 ft 413 kts 238°
2026-04-28 09:53 44.45223 2.07975 33055 ft 414 kts 237°
2026-04-28 09:54 44.42027 2.01223 33048 ft 415 kts 237°
2026-04-28 09:54 44.38848 1.94522 33034 ft 415 kts 237°
2026-04-28 09:55 44.35644 1.87785 33055 ft 415 kts 237°
2026-04-28 09:55 44.32434 1.81045 33041 ft 416 kts 237°
2026-04-28 09:56 44.29234 1.74344 33042 ft 417 kts 237°
2026-04-28 09:56 44.26086 1.67541 33031 ft 416 kts 238°
2026-04-28 09:57 44.22971 1.60717 33033 ft 416 kts 238°
2026-04-28 09:57 44.19870 1.53956 33033 ft 414 kts 238°
2026-04-28 09:58 44.16753 1.47194 33031 ft 413 kts 238°
2026-04-28 09:58 44.13661 1.40509 33030 ft 412 kts 238°
2026-04-28 09:59 44.10560 1.33820 33028 ft 411 kts 238°
2026-04-28 09:59 44.07448 1.27123 33038 ft 414 kts 238°
2026-04-28 10:00 44.04295 1.20356 33020 ft 417 kts 238°
2026-04-28 10:00 44.01165 1.13650 33020 ft 415 kts 237°
2026-04-28 10:01 43.98023 1.06932 33036 ft 414 kts 237°
2026-04-28 10:01 43.94877 1.00222 33041 ft 414 kts 237°
2026-04-28 10:02 43.91745 0.93555 33047 ft 415 kts 237°
2026-04-28 10:02 43.88431 0.86971 33039 ft 417 kts 230°
2026-04-28 10:03 43.84179 0.81477 33194 ft 422 kts 223°
2026-04-28 10:03 43.81969 0.78795 33543 ft 421 kts 223°
2026-04-28 10:03 43.79765 0.76113 33970 ft 420 kts 223°
2026-04-28 10:04 43.77576 0.73437 34358 ft 418 kts 223°
2026-04-28 10:04 43.75403 0.70773 34655 ft 417 kts 223°
2026-04-28 10:04 43.73237 0.68113 34877 ft 417 kts 223°
2026-04-28 10:04 43.71094 0.65480 35028 ft 418 kts 223°
2026-04-28 10:05 43.66705 0.60091 35037 ft 422 kts 223°
2026-04-28 10:05 43.62317 0.54717 35014 ft 418 kts 223°
2026-04-28 10:06 43.57978 0.49414 35029 ft 416 kts 223°
2026-04-28 10:06 43.53650 0.44135 35046 ft 417 kts 223°
2026-04-28 10:07 43.49325 0.38867 35037 ft 417 kts 223°
2026-04-28 10:07 43.44959 0.33561 35051 ft 418 kts 223°
2026-04-28 10:08 43.40604 0.28281 35027 ft 419 kts 223°
2026-04-28 10:08 43.36214 0.22964 35035 ft 421 kts 223°
2026-04-28 10:09 43.31808 0.17632 35046 ft 423 kts 223°
2026-04-28 10:09 43.27411 0.12321 35036 ft 423 kts 223°
2026-04-28 10:10 43.22987 0.06988 35036 ft 422 kts 222°
2026-04-28 10:10 43.18592 0.01700 35032 ft 421 kts 222°
2026-04-28 10:11 43.14180 -0.03597 35027 ft 421 kts 222°
2026-04-28 10:11 43.09767 -0.08886 35015 ft 420 kts 222°
2026-04-28 10:12 43.05383 -0.14129 35036 ft 420 kts 222°
2026-04-28 10:12 43.00968 -0.19398 35016 ft 421 kts 222°
2026-04-28 10:13 42.96573 -0.24635 35033 ft 421 kts 222°
2026-04-28 10:13 42.92150 -0.29894 35048 ft 420 kts 222°
2026-04-28 10:14 42.87754 -0.35111 35021 ft 421 kts 222°
2026-04-28 10:14 42.83320 -0.40364 35009 ft 421 kts 221°
2026-04-28 10:15 42.78501 -0.44808 35025 ft 423 kts 206°
2026-04-28 10:15 42.72987 -0.47746 35010 ft 425 kts 202°
2026-04-28 10:16 42.67477 -0.50575 35004 ft 426 kts 203°
2026-04-28 10:16 42.61935 -0.53454 35010 ft 426 kts 203°
2026-04-28 10:17 42.56398 -0.56348 35011 ft 426 kts 202°
2026-04-28 10:17 42.50887 -0.59228 35009 ft 426 kts 202°
2026-04-28 10:18 42.45340 -0.62123 34996 ft 426 kts 202°
2026-04-28 10:18 42.39843 -0.64985 34988 ft 426 kts 202°
2026-04-28 10:19 42.34295 -0.67868 34999 ft 426 kts 202°
2026-04-28 10:19 42.28740 -0.70749 34999 ft 427 kts 202°
2026-04-28 10:20 42.23214 -0.73610 35004 ft 427 kts 202°
2026-04-28 10:20 42.17644 -0.76488 34991 ft 428 kts 202°
2026-04-28 10:21 42.12101 -0.79347 34999 ft 428 kts 202°
2026-04-28 10:21 42.06517 -0.82223 34997 ft 429 kts 202°
2026-04-28 10:22 42.00922 -0.85098 34998 ft 430 kts 202°
2026-04-28 10:22 41.95346 -0.87967 35138 ft 432 kts 202°
2026-04-28 10:23 41.92537 -0.89412 35381 ft 431 kts 202°
2026-04-28 10:23 41.89739 -0.90850 35671 ft 429 kts 202°
2026-04-28 10:23 41.86949 -0.92282 35948 ft 427 kts 202°
2026-04-28 10:23 41.84208 -0.93688 36167 ft 426 kts 202°
2026-04-28 10:24 41.81434 -0.95110 36357 ft 427 kts 202°
2026-04-28 10:24 41.78653 -0.96535 36550 ft 427 kts 202°
2026-04-28 10:24 41.75872 -0.97957 36750 ft 426 kts 202°
2026-04-28 10:24 41.73105 -0.99372 36896 ft 427 kts 202°
2026-04-28 10:25 41.70318 -1.00795 36997 ft 428 kts 202°
2026-04-28 10:25 41.67547 -1.02297 37006 ft 429 kts 207°
2026-04-28 10:25 41.62675 -1.06706 37022 ft 424 kts 222°
2026-04-28 10:26 41.58338 -1.12010 37018 ft 422 kts 223°
2026-04-28 10:26 41.54024 -1.17273 37016 ft 421 kts 222°
2026-04-28 10:27 41.49677 -1.22523 37008 ft 420 kts 222°
2026-04-28 10:27 41.45324 -1.27751 36995 ft 421 kts 222°
2026-04-28 10:28 41.40987 -1.32946 36995 ft 422 kts 222°
2026-04-28 10:29 41.34403 -1.40814 37000 ft 424 kts 222°
2026-04-28 10:29 41.30020 -1.46040 36999 ft 426 kts 222°
2026-04-28 10:30 41.25596 -1.51306 36992 ft 427 kts 222°
2026-04-28 10:30 41.21177 -1.56556 36996 ft 428 kts 221°
2026-04-28 10:31 41.16718 -1.61843 36987 ft 429 kts 221°
2026-04-28 10:31 41.12248 -1.67134 36991 ft 429 kts 221°
2026-04-28 10:32 41.07814 -1.72374 36989 ft 429 kts 221°
2026-04-28 10:32 41.03348 -1.77640 36980 ft 429 kts 221°
2026-04-28 10:33 40.98882 -1.82898 36984 ft 428 kts 221°
2026-04-28 10:33 40.94459 -1.88101 36980 ft 427 kts 221°
2026-04-28 10:34 40.90762 -1.92442 36991 ft 426 kts 221°
2026-04-28 10:34 40.86320 -1.97651 36978 ft 426 kts 221°
2026-04-28 10:35 40.81886 -2.02841 36987 ft 425 kts 221°
2026-04-28 10:35 40.77485 -2.07985 36981 ft 424 kts 221°
2026-04-28 10:36 40.73053 -2.13153 36980 ft 424 kts 221°
2026-04-28 10:36 40.68618 -2.18302 36975 ft 424 kts 221°
2026-04-28 10:37 40.64206 -2.23409 36980 ft 424 kts 221°
2026-04-28 10:37 40.59788 -2.28515 36975 ft 425 kts 221°
2026-04-28 10:38 40.55336 -2.33655 36976 ft 425 kts 221°
2026-04-28 10:38 40.50875 -2.38796 36976 ft 426 kts 221°
2026-04-28 10:39 40.46436 -2.43903 36980 ft 427 kts 221°
2026-04-28 10:39 40.41952 -2.49052 36974 ft 427 kts 220°
2026-04-28 10:40 40.37930 -2.54773 36987 ft 428 kts 237°
2026-04-28 10:40 40.35481 -2.61861 36975 ft 431 kts 252°
2026-04-28 10:41 40.33877 -2.69465 36975 ft 432 kts 253°
2026-04-28 10:41 40.32285 -2.77037 36967 ft 433 kts 252°
2026-04-28 10:42 40.30639 -2.84631 36970 ft 433 kts 252°
2026-04-28 10:42 40.28969 -2.92237 36968 ft 433 kts 252°
2026-04-28 10:43 40.27308 -2.99780 36971 ft 433 kts 252°
2026-04-28 10:43 40.25629 -3.07373 36976 ft 433 kts 252°
2026-04-28 10:44 40.23955 -3.14912 36961 ft 433 kts 252°
2026-04-28 10:44 40.22268 -3.22490 36965 ft 433 kts 252°
2026-04-28 10:45 40.20596 -3.30014 36970 ft 432 kts 252°
2026-04-28 10:45 40.18914 -3.37581 36974 ft 432 kts 252°
2026-04-28 10:46 40.17229 -3.45135 36975 ft 431 kts 252°
2026-04-28 10:46 40.15552 -3.52631 36978 ft 431 kts 252°
2026-04-28 10:47 40.13858 -3.60175 36976 ft 431 kts 252°
2026-04-28 10:47 40.12146 -3.67631 36976 ft 430 kts 248°
2026-04-28 10:47 40.10785 -3.71091 36990 ft 427 kts 234°
2026-04-28 10:48 40.08904 -3.74089 36972 ft 426 kts 224°
2026-04-28 10:48 40.04150 -3.78670 36962 ft 425 kts 213°
2026-04-28 10:49 39.99215 -3.82894 36955 ft 426 kts 213°
2026-04-28 10:49 39.94268 -3.87183 36939 ft 427 kts 214°
2026-04-28 10:50 39.89321 -3.91510 36953 ft 428 kts 214°
2026-04-28 10:50 39.84397 -3.95819 36953 ft 428 kts 214°
2026-04-28 10:51 39.79433 -4.00154 36954 ft 429 kts 214°
2026-04-28 10:51 39.74458 -4.04490 36951 ft 430 kts 214°
2026-04-28 10:52 39.69514 -4.08793 36948 ft 430 kts 214°
2026-04-28 10:52 39.64524 -4.13138 36945 ft 431 kts 214°
2026-04-28 10:53 39.59539 -4.17472 36938 ft 431 kts 214°
2026-04-28 10:53 39.54578 -4.21778 36937 ft 431 kts 214°
2026-04-28 10:54 39.49584 -4.26104 36931 ft 431 kts 214°
2026-04-28 10:54 39.44586 -4.30427 36933 ft 431 kts 214°
2026-04-28 10:55 39.39624 -4.34710 36922 ft 431 kts 214°
2026-04-28 10:55 39.34623 -4.39021 36923 ft 431 kts 214°
2026-04-28 10:56 39.29658 -4.43293 36915 ft 431 kts 213°
2026-04-28 10:56 39.24661 -4.47587 36916 ft 431 kts 213°
2026-04-28 10:57 39.19641 -4.51886 36465 ft 436 kts 213°
2026-04-28 10:57 39.17108 -4.54046 35945 ft 434 kts 213°
2026-04-28 10:57 39.14646 -4.56144 35784 ft 422 kts 214°
2026-04-28 10:57 39.12215 -4.58213 35622 ft 417 kts 214°
2026-04-28 10:58 39.09779 -4.60287 35497 ft 420 kts 214°
2026-04-28 10:58 39.07319 -4.62381 35353 ft 426 kts 214°
2026-04-28 10:58 39.04876 -4.64458 35175 ft 422 kts 214°
2026-04-28 10:58 39.02437 -4.66530 34660 ft 419 kts 214°
2026-04-28 10:59 38.99996 -4.68600 33980 ft 422 kts 214°
2026-04-28 10:59 38.97537 -4.70685 33165 ft 426 kts 214°
2026-04-28 10:59 38.95048 -4.72793 32320 ft 430 kts 214°
2026-04-28 10:59 38.92534 -4.74920 31506 ft 433 kts 213°
2026-04-28 11:00 38.90033 -4.77036 31180 ft 425 kts 213°
2026-04-28 11:00 38.87596 -4.79095 30718 ft 421 kts 213°
2026-04-28 11:00 38.85155 -4.81156 30306 ft 417 kts 213°
2026-04-28 11:00 38.82746 -4.83190 29872 ft 412 kts 213°
2026-04-28 11:01 38.80354 -4.85207 29396 ft 408 kts 213°
2026-04-28 11:01 38.77994 -4.87195 28964 ft 402 kts 213°
2026-04-28 11:01 38.75696 -4.89130 28536 ft 398 kts 213°
2026-04-28 11:01 38.73398 -4.91063 28124 ft 393 kts 213°
2026-04-28 11:02 38.71116 -4.92982 27692 ft 389 kts 213°
2026-04-28 11:02 38.68866 -4.94872 27287 ft 385 kts 213°
2026-04-28 11:02 38.66638 -4.96742 26887 ft 381 kts 213°
2026-04-28 11:02 38.64423 -4.98600 26483 ft 378 kts 213°
2026-04-28 11:03 38.62255 -5.00417 26091 ft 375 kts 213°
2026-04-28 11:03 38.60077 -5.02241 25695 ft 372 kts 213°
2026-04-28 11:03 38.57918 -5.04049 25310 ft 369 kts 213°
2026-04-28 11:03 38.55771 -5.05846 24922 ft 367 kts 213°
2026-04-28 11:04 38.53638 -5.07628 24538 ft 365 kts 213°
2026-04-28 11:04 38.51519 -5.09397 24145 ft 363 kts 213°
2026-04-28 11:04 38.49459 -5.11254 23756 ft 362 kts 218°
2026-04-28 11:04 38.47529 -5.13314 23360 ft 360 kts 220°
2026-04-28 11:05 38.45678 -5.15407 22917 ft 359 kts 221°
2026-04-28 11:05 38.43824 -5.17526 22516 ft 356 kts 221°
2026-04-28 11:05 38.41974 -5.19628 22132 ft 353 kts 221°
2026-04-28 11:05 38.40138 -5.21694 21751 ft 350 kts 221°
2026-04-28 11:06 38.38331 -5.23712 21386 ft 348 kts 220°
2026-04-28 11:06 38.36507 -5.25735 21019 ft 345 kts 220°
2026-04-28 11:06 38.34695 -5.27737 20658 ft 343 kts 220°
2026-04-28 11:06 38.32894 -5.29721 20294 ft 341 kts 220°
2026-04-28 11:07 38.31099 -5.31695 19934 ft 339 kts 220°
2026-04-28 11:07 38.29339 -5.33628 19586 ft 337 kts 220°
2026-04-28 11:07 38.27564 -5.35576 19233 ft 334 kts 220°
2026-04-28 11:07 38.25805 -5.37503 18877 ft 333 kts 220°
2026-04-28 11:08 38.24051 -5.39425 18518 ft 331 kts 220°
2026-04-28 11:08 38.22331 -5.41308 18162 ft 329 kts 220°
2026-04-28 11:08 38.20597 -5.43204 17763 ft 328 kts 220°
2026-04-28 11:08 38.18870 -5.45092 17381 ft 325 kts 220°
2026-04-28 11:09 38.17153 -5.46968 17022 ft 323 kts 220°
2026-04-28 11:09 38.15451 -5.48826 16665 ft 321 kts 220°
2026-04-28 11:09 38.13759 -5.50672 16320 ft 318 kts 220°
2026-04-28 11:09 38.12102 -5.52479 15977 ft 316 kts 220°
2026-04-28 11:10 38.10434 -5.54296 15632 ft 314 kts 220°
2026-04-28 11:10 38.08777 -5.56101 15297 ft 312 kts 220°
2026-04-28 11:10 38.07128 -5.57895 14955 ft 310 kts 220°
2026-04-28 11:10 38.05514 -5.59652 14628 ft 308 kts 219°
2026-04-28 11:11 38.03887 -5.61418 14297 ft 307 kts 219°
2026-04-28 11:11 38.02263 -5.63184 13956 ft 306 kts 219°
2026-04-28 11:11 38.00647 -5.64939 13626 ft 305 kts 219°
2026-04-28 11:11 37.99037 -5.66686 13252 ft 303 kts 219°
2026-04-28 11:12 37.97460 -5.68396 12887 ft 302 kts 219°
2026-04-28 11:12 37.95863 -5.70127 12564 ft 300 kts 219°
2026-04-28 11:12 37.94281 -5.71840 12233 ft 298 kts 220°
2026-04-28 11:12 37.92710 -5.73541 11909 ft 296 kts 220°
2026-04-28 11:13 37.91141 -5.75238 11577 ft 295 kts 220°
2026-04-28 11:13 37.89580 -5.76926 11252 ft 294 kts 220°
2026-04-28 11:13 37.88029 -5.78602 10933 ft 292 kts 220°
2026-04-28 11:13 37.86500 -5.80253 10614 ft 291 kts 220°
2026-04-28 11:14 37.84964 -5.81911 10292 ft 290 kts 220°
2026-04-28 11:14 37.83436 -5.83559 10082 ft 285 kts 220°
2026-04-28 11:14 37.81947 -5.85165 9954 ft 278 kts 220°
2026-04-28 11:14 37.80476 -5.86751 9693 ft 279 kts 220°
2026-04-28 11:15 37.78979 -5.88363 9395 ft 282 kts 220°
2026-04-28 11:15 37.77499 -5.89957 9077 ft 283 kts 220°
2026-04-28 11:15 37.76001 -5.91569 8772 ft 282 kts 220°
2026-04-28 11:15 37.74505 -5.93178 8477 ft 281 kts 220°
2026-04-28 11:16 37.73015 -5.94780 8172 ft 280 kts 220°
2026-04-28 11:16 37.71531 -5.96375 7877 ft 278 kts 220°
2026-04-28 11:16 37.70077 -5.97936 7585 ft 277 kts 220°
2026-04-28 11:16 37.68610 -5.99511 7293 ft 275 kts 220°
2026-04-28 11:17 37.67154 -6.01071 7018 ft 274 kts 220°
2026-04-28 11:17 37.65707 -6.02635 6710 ft 273 kts 222°
2026-04-28 11:17 37.64339 -6.04318 6369 ft 275 kts 223°
2026-04-28 11:17 37.62942 -6.05941 6082 ft 270 kts 219°
2026-04-28 11:18 37.61520 -6.07399 5806 ft 262 kts 217°
2026-04-28 11:18 37.60067 -6.08746 5503 ft 254 kts 213°
2026-04-28 11:18 37.58613 -6.09939 5257 ft 245 kts 210°
2026-04-28 11:18 37.57145 -6.10989 4993 ft 239 kts 205°
2026-04-28 11:19 37.55663 -6.11884 4749 ft 233 kts 202°
2026-04-28 11:19 37.54169 -6.12655 4509 ft 231 kts 199°
2026-04-28 11:19 37.52675 -6.13323 4264 ft 228 kts 196°
2026-04-28 11:19 37.51204 -6.13888 4155 ft 214 kts 194°
2026-04-28 11:20 37.49808 -6.14334 4067 ft 198 kts 191°
2026-04-28 11:20 37.48498 -6.14671 3992 ft 189 kts 188°
2026-04-28 11:20 37.47197 -6.14931 3928 ft 189 kts 186°
2026-04-28 11:20 37.46332 -6.15066 3876 ft 188 kts 185°
2026-04-28 11:21 37.44605 -6.15254 3762 ft 186 kts 182°
2026-04-28 11:21 37.43321 -6.15225 3614 ft 184 kts 162°
2026-04-28 11:21 37.42292 -6.14391 3481 ft 172 kts 130°
2026-04-28 11:21 37.41866 -6.13560 3344 ft 169 kts 114°
2026-04-28 11:22 37.41693 -6.12134 3124 ft 165 kts 79°
2026-04-28 11:22 37.41867 -6.10635 3052 ft 189 kts 95°
2026-04-28 11:22 37.41708 -6.08943 2788 ft 196 kts 94°
2026-04-28 11:22 37.41723 -6.07271 2545 ft 188 kts 90°
2026-04-28 11:23 37.41748 -6.05673 2305 ft 177 kts 91°
2026-04-28 11:23 37.41756 -6.04182 2075 ft 164 kts 90°
2026-04-28 11:23 37.41759 -6.02758 1864 ft 161 kts 91°
2026-04-28 11:23 37.41761 -6.01362 1665 ft 159 kts 91°
2026-04-28 11:24 37.41764 -5.99965 1449 ft 160 kts 91°
2026-04-28 11:24 37.41768 -5.98572 1236 ft 158 kts 91°
2026-04-28 11:24 37.41771 -5.97177 1021 ft 160 kts 91°
2026-04-28 11:24 37.41775 -5.95779 815 ft 159 kts 91°
2026-04-28 11:25 37.41778 -5.94408 645 ft 159 kts 94°
2026-04-28 11:25 37.41781 -5.93018 404 ft 157 kts 91°
2026-04-28 11:25 37.41795 -5.91645 190 ft 155 kts 92°
2026-04-28 11:25 37.41787 -5.90314 93 ft 144 kts 90°
2026-04-28 11:26 37.41789 -5.89239 94 ft 101 kts 91°
2026-04-28 11:26 37.41795 -5.88585 104 ft 63 kts 89°
2026-04-28 11:26 37.41796 -5.88151 105 ft 44 kts 90°
2026-04-28 11:26 37.41800 -5.87786 105 ft 40 kts 90°
2026-04-28 11:27 37.41804 -5.87535 108 ft 16 kts 79°
2026-04-28 11:27 37.41860 -5.87439 107 ft 13 kts 24°
2026-04-28 11:27 37.41943 -5.87459 104 ft 13 kts 319°
2026-04-28 11:27 37.41983 -5.87554 105 ft 13 kts 283°
2026-04-28 11:28 37.41987 -5.87662 105 ft 12 kts 269°
2026-04-28 11:28 37.41987 -5.87767 105 ft 12 kts 269°
2026-04-28 11:28 37.41987 -5.87877 104 ft 14 kts 269°
2026-04-28 11:28 37.41987 -5.88001 104 ft 14 kts 269°
2026-04-28 11:29 37.41986 -5.88121 107 ft 14 kts 270°
2026-04-28 11:29 37.41986 -5.88238 108 ft 14 kts 269°
2026-04-28 11:29 37.41988 -5.88367 107 ft 16 kts 272°
2026-04-28 11:29 37.41987 -5.88514 106 ft 17 kts 270°
2026-04-28 11:30 37.41986 -5.88664 107 ft 17 kts 269°
2026-04-28 11:30 37.41984 -5.89011 97 ft 22 kts 270°
2026-04-28 11:30 37.41984 -5.89203 95 ft 22 kts 269°
2026-04-28 11:31 37.41981 -5.89387 91 ft 21 kts 271°
2026-04-28 11:31 37.41983 -5.89550 91 ft 18 kts 269°
2026-04-28 11:31 37.41982 -5.89692 93 ft 14 kts 269°
2026-04-28 11:31 37.41980 -5.89805 92 ft 12 kts 269°
2026-04-28 11:32 37.42008 -5.89882 93 ft 8 kts 323°
2026-04-28 11:32 37.42054 -5.89911 94 ft 7 kts 335°
2026-04-28 11:32 37.42100 -5.89927 95 ft 6 kts 354°
2026-04-28 11:32 37.42143 -5.89936 95 ft 6 kts 346°
2026-04-28 11:33 37.42181 -5.89949 96 ft 3 kts 342°
2026-04-28 11:33 37.42202 -5.89957 95 ft 3 kts 344°
2026-04-28 11:33 37.42215 -5.89962 94 ft 0 kts 344°